KF4KFQ Weather Reports


time (UTC)temp
C
wind
direction
speed
KPH
gust
KPH
rain 1hr
cm
rain 24hr
cm
rain mn
cm
humidity
%
barometer
mb
20260906034833 26 82 4.8 19.3 0.00 0.00 0.00 74 1009.7
20260906033338 25 28 4.8 14.5 0.00 0.00 0.00 85 1010.1
20260906031842 25 336 1.6 3.2 0.00 0.00 0.00 83 1009.6
20260906030345 25 242 0.0 4.8 0.00 0.00 0.00 82 1009.2
20260906024831 26 229 1.6 4.8 0.00 0.00 0.00 80 1009.1
20260906023329 26 211 3.2 4.8 0.00 0.00 0.00 80 1008.9
20260906021847 26 211 1.6 6.4 0.00 0.00 0.00 76 1008.6
20260906020331 27 53 0.0 3.2 0.00 0.00 0.00 71 1008.3
20260906014839 27 56 1.6 6.4 0.00 0.00 0.00 71 1008.1
20260906013325 27 201 0.0 3.2 0.00 0.00 0.00 71 1008.2
20260906011848 27 182 1.6 3.2 0.00 0.00 0.00 70 1008.3
20260906010334 28 243 1.6 11.3 0.00 0.00 0.00 70 1008.6
20260906004859 27 111 3.2 24.1 0.00 0.00 0.00 70 1009.0
20260906003324 28 208 14.5 33.8 0.00 0.00 0.00 64 1008.7
20260906001829 30 246 11.3 27.4 0.00 0.00 0.00 61 1008.6
20260906000326 33 280 3.2 9.7 0.00 0.00 0.00 53 1008.5
20260905234843 34 109 4.8 9.7 0.00 0.00 0.00 50 1008.1
20260905233345 35 60 3.2 8.0 0.00 0.00 0.00 48 1008.1
20260905231832 37 159 3.2 14.5 0.00 0.00 0.00 46 1007.8
20260905230337 39 221 1.6 4.8 0.00 0.00 0.00 40 1007.7
20260905224843 38 263 1.6 6.4 0.00 0.00 0.00 40 1007.7
20260905223332 38 198 4.8 9.7 0.00 0.00 0.00 40 1007.7
20260905221831 39 242 3.2 9.7 0.00 0.00 0.00 40 1007.6
20260905220338 39 202 6.4 11.3 0.00 0.00 0.00 39 1007.7
20260905214842 40 229 4.8 12.9 0.00 0.00 0.00 39 1007.8
20260905213325 40 210 3.2 11.3 0.00 0.00 0.00 39 1007.7
20260905211830 40 340 3.2 12.9 0.00 0.00 0.00 38 1007.9
20260905210329 41 350 3.2 11.3 0.00 0.00 0.00 38 1008.0
20260905204829 41 327 3.2 11.3 0.00 0.00 0.00 37 1008.1
20260905203324 40 32 1.6 8.0 0.00 0.00 0.00 38 1008.3
20260905201825 39 72 3.2 11.3 0.00 0.00 0.00 41 1008.3
20260905200331 39 39 1.6 9.7 0.00 0.00 0.00 41 1008.8
20260905194830 38 327 1.6 11.3 0.00 0.00 0.00 42 1009.1
20260905193348 39 327 6.4 11.3 0.00 0.00 0.00 42 1009.2
20260905191827 40 229 3.2 6.4 0.00 0.00 0.00 42 1009.5
20260905190331 40 335 4.8 11.3 0.00 0.00 0.00 41 1009.6
20260905184828 39 234 1.6 9.7 0.00 0.00 0.00 42 1009.7
20260905183347 38 34 3.2 9.7 0.00 0.00 0.00 46 1010.1
20260905181830 38 27 1.6 8.0 0.00 0.00 0.00 47 1010.3
20260905180338 38 14 6.4 14.5 0.00 0.00 0.00 45 1010.5
20260905174840 38 132 4.8 8.0 0.00 0.00 0.00 45 1010.7
20260905173325 38 343 1.6 9.7 0.00 0.00 0.00 47 1010.7
20260905171849 38 329 1.6 9.7 0.00 0.00 0.00 49 1010.8
20260905170329 37 333 1.6 8.0 0.00 0.00 0.00 47 1011.0
20260905164826 37 19 1.6 8.0 0.00 0.00 0.00 51 1011.2
20260905163330 36 60 3.2 8.0 0.00 0.00 0.00 53 1011.4
20260905161827 35 140 3.2 8.0 0.00 0.00 0.00 56 1011.6
20260905160342 33 189 1.6 6.4 0.00 0.00 0.00 60 1011.8
20260905154830 32 212 3.2 6.4 0.00 0.00 0.00 64 1012.0
20260905153329 31 46 3.2 6.4 0.00 0.00 0.00 67 1012.0
20260905151835 30 207 3.2 4.8 0.00 0.00 0.00 73 1012.0
20260905150336 28 220 0.0 0.0 0.00 0.00 0.00 78 1012.0
20260905144824 27 193 0.0 0.0 0.00 0.00 0.00 78 1012.2
20260905143330 27 193 0.0 0.0 0.00 0.00 0.00 81 1012.1
20260905141827 26 193 0.0 0.0 0.00 0.00 0.00 84 1012.2
20260905140334 26 193 0.0 0.0 0.00 0.00 0.00 85 1012.2
20260905134823 25 148 0.0 0.0 0.00 0.00 0.00 87 1012.2
20260905133326 25 148 0.0 0.0 0.00 0.00 0.00 88 1012.3
20260905131831 25 148 0.0 0.0 0.00 0.00 0.00 90 1012.3
20260905130325 24 245 0.0 0.0 0.00 0.00 0.00 92 1012.4
20260905124843 23 85 0.0 0.0 0.00 0.00 0.00 94 1012.5
20260905123326 23 85 0.0 0.0 0.00 0.00 0.00 95 1012.4
20260905121851 22 85 0.0 1.6 0.00 0.00 0.00 94 1012.2
20260905120347 22 155 0.0 0.0 0.00 0.00 0.00 94 1012.1
20260905114830 22 155 0.0 0.0 0.00 0.00 0.00 93 1012.0
20260905113325 22 155 0.0 0.0 0.00 0.00 0.00 93 1011.7
20260905111853 22 155 0.0 0.0 0.00 0.00 0.00 93 1011.5
20260905110329 22 155 0.0 0.0 0.00 0.00 0.00 92 1011.3
20260905104853 22 155 0.0 0.0 0.00 0.00 0.00 92 1011.3
20260905103329 22 155 0.0 3.2 0.00 0.00 0.00 92 1011.1
20260905101835 22 192 0.0 0.0 0.00 0.00 0.00 92 1011.0
20260905100326 22 192 0.0 0.0 0.00 0.00 0.00 91 1010.8
20260905094832 22 192 0.0 0.0 0.00 0.00 0.00 91 1010.7
20260905093331 22 192 0.0 0.0 0.00 0.00 0.00 91 1010.6
20260905091857 22 192 0.0 3.2 0.00 0.00 0.00 91 1010.6
20260905090326 22 192 0.0 0.0 0.00 0.00 0.00 90 1010.6
20260905084831 22 192 0.0 0.0 0.00 0.00 0.00 90 1010.6
20260905083351 22 192 0.0 0.0 0.00 0.00 0.00 90 1010.7
20260905081846 23 192 0.0 3.2 0.00 0.00 0.00 90 1010.7
20260905080329 23 211 0.0 3.2 0.00 0.00 0.00 90 1010.9
20260905074839 23 252 0.0 0.0 0.00 0.00 0.00 89 1010.8
20260905073326 23 252 0.0 0.0 0.00 0.00 0.00 89 1010.8
20260905071850 23 252 0.0 0.0 0.00 0.00 0.00 89 1011.0
20260905070336 23 187 0.0 0.0 0.00 0.00 0.00 88 1011.0
20260905064827 23 100 0.0 0.0 0.00 0.00 0.00 87 1011.1
20260905063331 23 100 0.0 0.0 0.00 0.00 0.00 87 1011.1
20260905061836 24 158 0.0 1.6 0.00 0.00 0.00 87 1010.9
20260905060402 24 207 0.0 0.0 0.00 0.00 0.00 86 1011.1
20260905054848 24 207 0.0 0.0 0.00 0.00 0.00 86 1011.0
20260905053330 24 207 0.0 0.0 0.00 0.00 0.00 85 1010.9
20260905051828 25 207 0.0 0.0 0.00 0.00 0.00 85 1011.0
20260905050331 25 207 0.0 0.0 0.00 0.00 0.00 83 1011.0
20260905044828 25 207 0.0 0.0 0.00 0.00 0.00 83 1011.1
20260905043330 25 207 0.0 0.0 0.00 0.00 0.00 83 1011.3
20260905041847 25 207 0.0 0.0 0.00 0.00 0.00 81 1011.3
20260905040330 25 207 0.0 0.0 0.00 0.00 0.00 81 1011.4